{"data":{"norad_id":64764,"epoch":"2026-09-20T14:07:23.604096Z","epoch_age_seconds":119976,"freshness":"FRESH","line1":"1 64764U 25147K   26263.58846764  .00017929  00000+0  54040-3 0  9996","line2":"2 64764  53.1588  53.0679 0001801  84.5207 275.6001 15.34405358 68693","mean_motion":15.34405358,"eccentricity":0.0001801,"inclination_deg":53.1588,"raan_deg":53.0679,"arg_perigee_deg":84.5207,"mean_anomaly_deg":275.6001,"bstar":0.0005404,"rev_number":6869,"period_min":93.847430373741,"perigee_km":461.45528268914,"apogee_km":463.91934760746,"semimajor_km":6840.8243151483,"source":"CELESTRAK","updated_at":"2026-09-21T09:00:35.437922Z"}}